Date,TemperatureHighF,TemperatureAvgF,TemperatureLowF,DewpointHighF,DewpointAvgF,DewpointLowF,HumidityHigh,HumidityAvg,HumidityLow,PressureMaxIn,PressureMinIn,WindSpeedMaxMPH,WindSpeedAvgMPH,GustSpeedMaxMPH,PrecipitationSumIn
2013-1-1,19.4,5.8,-8.6,15.3,-0.2,-13.5,84,76,53,30.23,29.98,16,5,16,0.00
2013-1-2,21.2,16.8,13.7,17.4,13.6,11.1,91,87,82,30.04,29.90,16,7,16,0.00
2013-1-3,20.5,14.1,9.0,15.8,7.9,4.1,85,77,57,30.23,30.04,17,8,17,0.00
2013-1-4,33.1,21.4,13.3,18.5,13.7,9.4,85,73,53,30.08,29.97,16,6,16,0.00
2013-1-5,37.3,18.6,10.4,18.4,11.5,6.4,89,74,42,30.04,29.82,14,5,14,0.00
2013-1-6,32.8,18.9,10.4,14.6,10.4,3.6,87,71,45,30.18,29.97,16,6,16,0.00
2013-1-7,39.2,29.4,19.1,26.3,21.8,13.7,87,73,58,29.97,29.85,27,11,27,0.00
2013-1-8,36.0,27.9,18.2,28.4,22.9,14.9,92,82,68,29.93,29.71,25,7,25,0.00
2013-1-9,40.0,31.5,25.6,26.3,22.6,19.3,86,70,50,30.31,29.87,31,10,31,0.00
2013-1-10,41.6,34.7,27.4,32.6,25.6,20.3,94,71,49,30.25,29.69,20,10,20,0.00
2013-1-11,40.7,36.5,34.2,39.1,34.9,32.6,95,94,90,29.69,29.33,22,9,22,0.00
2013-1-12,38.5,15.5,4.9,36.1,8.4,-2.2,91,73,61,30.04,29.35,41,10,41,0.00
2013-1-13,13.3,6.0,2.3,4.1,-0.7,-3.6,81,74,64,30.19,30.00,15,6,15,0.00
2013-1-14,25.9,10.4,3.6,7.7,2.3,-0.7,84,71,43,30.36,30.19,13,4,13,0.00
2013-1-15,33.7,21.7,9.7,18.9,12.7,4.8,85,69,49,30.22,29.79,26,8,26,0.00
2013-1-16,37.1,26.4,12.4,31.6,18.9,2.1,91,74,48,30.18,29.62,16,1,16,0.00
2013-1-17,25.9,13.5,4.7,10.6,3.6,-3.3,77,65,48,30.34,30.18,14,5,14,0.00
2013-1-18,43.6,30.6,16.9,31.1,23.8,10.3,87,76,60,30.23,29.68,19,5,19,0.00
2013-1-19,41.4,25.2,3.8,31.7,19.0,-4.8,91,78,52,30.20,29.63,31,7,31,0.00
2013-1-20,16.0,4.9,-1.8,2.4,-5.1,-10.6,78,63,43,30.35,30.19,19,1,19,0.00
2013-1-21,3.1,-2.2,-5.2,-10.2,-12.8,-14.8,69,60,48,30.25,30.22,17,2,17,0.00
2013-1-22,5.0,2.6,1.1,-2.7,-7.1,-12.1,70,64,51,30.31,30.18,0,0,0,0.00
2013-1-23,23.9,9.2,-3.2,10.9,-1.7,-15.4,83,62,42,30.54,30.09,22,4,22,0.00
2013-1-24,13.7,6.6,-4.7,2.0,-5.9,-15.5,60,56,49,30.59,30.11,14,0,14,0.00
2013-1-25,22.0,14.7,4.7,12.7,4.2,-3.7,78,63,46,30.25,29.90,18,3,18,0.00
2013-1-26,24.5,13.6,0.4,12.4,3.5,-5.7,78,65,50,30.29,30.05,16,4,16,0.00
2013-1-27,32.8,29.2,23.0,29.5,22.8,12.2,93,78,59,30.06,29.75,15,4,15,0.00
2013-1-28,30.4,30.4,30.4,28.5,28.5,28.3,92,92,92,29.76,29.75,2,1,2,0.00
2013-1-29,37.4,32.6,27.7,32.0,29.2,22.1,94,88,77,29.70,29.48,23,6,23,0.00
2013-1-30,27.7,17.9,8.5,22.1,11.2,1.3,81,75,68,29.72,29.59,22,10,22,0.00
2013-1-31,8.6,3.1,-7.2,2.7,-5.3,-15.7,78,68,56,30.22,29.72,23,10,23,0.00
2013-2-1,7.9,5.7,3.6,1.6,-4.0,-11.9,80,65,43,30.16,29.99,13,4,13,0.00
2013-2-2,23.9,10.3,2.3,6.3,1.3,-3.5,81,68,41,30.12,29.92,12,4,12,0.00
2013-2-3,20.3,11.7,4.5,8.1,4.6,-1.1,82,73,50,30.03,29.91,17,5,17,0.00
2013-2-4,28.8,13.4,5.0,11.0,3.2,-1.6,86,65,37,30.01,29.70,20,5,20,0.00
2013-2-5,37.6,23.4,7.2,24.8,16.6,3.0,91,77,46,30.03,29.61,21,8,21,0.00
2013-2-6,27.2,16.1,3.2,19.5,11.0,-0.9,85,80,71,30.06,29.87,13,4,13,0.00
2013-2-7,27.2,25.2,20.7,22.8,20.9,16.8,90,84,77,30.19,29.92,22,8,22,0.00
2013-2-8,27.9,23.5,20.0,20.4,17.3,13.9,82,77,65,30.31,30.15,24,7,24,0.00
2013-2-9,31.7,28.3,25.0,27.8,24.2,20.4,90,85,81,30.16,29.87,33,16,33,0.00
2013-2-10,33.5,30.6,28.1,31.3,27.9,24.1,93,90,85,29.87,29.23,17,7,17,0.00
2013-2-11,29.5,24.1,14.2,27.7,18.5,9.0,93,79,68,29.99,29.30,25,11,25,0.00
2013-2-12,40.3,24.3,12.1,25.0,16.6,7.3,86,73,52,29.99,29.75,23,9,23,0.00
2013-2-13,42.7,27.5,14.9,29.6,21.7,11.2,92,79,55,29.76,29.51,12,6,12,0.00
2013-2-14,76.1,28.3,19.1,75.9,17.4,3.6,99,65,46,30.12,29.52,18,8,18,0.00
2013-2-15,138.2,3.8,-39.2,94.9,-11.6,-55.1,99,57,1,30.25,30.15,18,6,18,0.00
2013-2-16,0.0,-5.6,-39.2,0.0,-7.6,-55.1,99,88,38,30.20,30.16,7,3,7,0.00
2013-8-24,92.2,85.5,81.0,72.3,71.0,68.6,73,62,48,29.95,29.88,38,20,38,0.00
2013-8-25,96.8,86.1,77.4,75.3,72.5,69.4,78,65,49,29.94,29.87,30,15,30,0.00
2013-8-26,97.4,86.3,77.0,77.2,74.0,71.8,85,68,49,29.93,29.79,26,10,26,0.00
2013-8-27,106.0,87.4,75.8,80.6,74.4,70.7,85,67,42,29.86,29.74,12,5,12,0.00
2013-8-28,96.7,82.4,72.0,75.3,70.7,66.5,89,70,45,29.94,29.85,13,4,13,0.00
2013-8-29,96.1,84.1,74.7,75.1,71.6,66.5,89,68,40,29.94,29.79,25,9,25,0.00
2013-8-30,95.6,81.3,73.1,71.8,67.3,61.8,85,65,41,29.87,29.76,15,6,15,0.00
2013-8-31,94.9,77.4,65.3,70.7,64.8,59.5,88,67,42,29.84,29.65,21,5,21,0.00
2013-9-1,78.1,70.4,61.6,64.5,59.8,52.8,85,70,54,29.92,29.67,21,6,21,0.00
2013-9-2,75.2,61.4,53.5,56.5,51.8,48.6,86,72,49,30.02,29.91,12,4,12,0.00
2013-9-3,84.2,64.1,48.4,59.1,53.2,46.0,93,71,41,30.02,29.92,14,4,14,0.00
2013-9-4,100.3,76.8,59.2,69.7,61.8,55.4,90,63,33,30.08,29.94,11,3,11,0.00
2013-9-5,87.3,74.5,63.4,67.7,60.4,53.4,82,63,45,30.15,30.03,14,6,14,0.00
2013-9-6,93.8,80.2,69.7,69.0,66.4,63.1,91,66,41,30.03,29.80,28,11,28,0.00
2013-9-7,104.8,85.0,69.8,73.2,67.6,61.8,84,59,32,29.95,29.79,14,5,14,0.00
2013-9-8,80.5,71.8,66.6,65.5,61.7,57.2,80,71,54,29.98,29.81,18,7,18,0.00
2013-9-9,95.9,79.5,69.1,73.1,68.7,63.7,91,72,45,29.82,29.56,26,10,26,0.00
2013-9-10,83.3,74.3,67.3,69.8,64.7,59.5,90,73,52,29.92,29.70,14,6,14,0.00
2013-9-11,94.3,75.0,62.5,63.3,59.3,49.7,91,63,25,30.00,29.91,19,6,19,0.00
2013-9-12,83.2,68.9,56.9,57.0,49.5,43.3,79,52,30,30.15,29.99,15,6,18,0.00
2013-9-13,83.2,63.8,48.6,52.0,45.4,42.9,86,55,28,30.20,30.01,11,3,11,0.00
2013-9-14,74.2,60.9,51.3,55.7,48.4,43.5,92,66,39,30.02,29.81,24,9,24,0.00
2013-9-15,76.0,60.9,51.5,60.2,53.7,44.6,93,78,49,30.24,29.80,15,6,15,0.00
2013-9-16,70.9,56.4,43.7,48.4,43.4,39.8,87,64,38,30.32,30.17,16,6,16,0.00
2013-9-17,68.4,57.2,49.5,57.4,49.6,43.1,93,76,58,30.17,29.86,29,12,29,0.00
2013-9-18,78.5,68.9,59.4,69.5,65.3,57.4,95,88,74,29.86,29.62,22,9,22,0.00
2013-9-19,81.2,71.9,64.3,69.9,66.0,54.9,92,82,60,29.74,29.57,30,6,30,0.00
2013-9-20,69.7,59.2,52.2,55.4,51.2,46.7,90,76,54,29.85,29.72,20,8,20,0.00
2013-9-21,76.9,59.4,47.2,51.4,47.1,43.8,89,67,39,29.91,29.83,8,3,8,0.00
2013-9-22,76.9,61.6,48.1,56.6,50.4,43.1,85,68,48,29.88,29.76,24,10,24,0.00
2013-9-23,75.8,63.9,53.6,54.4,51.3,48.0,82,65,44,29.87,29.79,28,14,28,0.00
2013-9-24,83.2,65.1,52.0,56.5,51.6,47.5,85,64,37,29.89,29.83,16,5,16,0.00
2013-9-25,76.9,64.5,52.2,55.5,51.6,47.8,86,65,42,29.89,29.79,22,6,22,0.00
2013-9-26,83.0,72.4,56.7,61.2,57.6,50.2,81,61,46,29.84,29.75,30,16,30,0.00
2013-9-27,86.4,73.0,65.7,64.4,61.0,59.1,80,67,46,29.84,29.72,35,13,35,0.00
2013-9-28,72.4,61.5,48.4,62.6,53.8,44.1,90,76,63,29.86,29.56,28,13,28,0.00
2013-9-29,79.6,61.7,45.5,50.0,45.2,40.9,89,59,30,29.87,29.71,26,10,26,0.00
2013-9-30,82.8,68.3,59.4,54.4,49.7,46.0,65,52,35,29.72,29.52,30,15,30,0.00
2013-10-1,82.1,70.3,55.1,53.0,44.2,33.5,69,42,19,29.92,29.52,22,9,22,0.00
2013-10-2,77.9,61.6,46.6,54.7,43.8,35.8,91,57,26,29.96,29.74,26,7,26,0.00
2013-10-3,61.6,58.4,55.8,58.7,55.6,53.5,93,90,87,29.84,29.74,17,5,21,0.00
2013-10-4,58.7,56.7,54.7,55.5,53.8,52.6,93,90,86,29.89,29.74,21,8,21,0.00
2013-10-5,64.8,55.3,44.6,57.9,49.6,41.2,94,82,53,29.75,29.65,24,6,24,0.00
2013-10-6,56.2,47.2,38.9,52.3,44.6,37.3,95,91,83,29.76,29.60,13,4,13,0.00
2013-10-7,77.8,58.1,41.0,52.5,43.7,39.2,93,64,30,29.89,29.74,13,3,13,0.00
2013-10-8,79.2,64.2,51.3,49.8,45.7,41.5,75,53,33,29.87,29.74,32,13,32,0.00
2013-10-9,78.8,66.4,58.1,54.6,49.8,46.7,70,56,38,29.95,29.84,22,13,22,0.00
2013-10-10,78.8,63.5,52.2,56.6,49.4,44.6,76,61,39,29.95,29.79,28,10,28,0.00
2013-10-11,75.4,65.2,56.5,61.7,54.0,50.4,85,68,50,29.79,29.55,43,18,43,0.00
2013-10-12,59.6,51.3,42.8,54.5,42.5,36.7,84,72,56,30.08,29.62,32,11,32,0.00
2013-10-13,73.6,52.7,36.2,44.7,37.3,32.6,88,61,28,30.32,30.08,9,3,9,0.00
2013-10-14,55.3,50.4,42.3,46.5,40.4,36.1,90,69,54,30.29,29.85,19,7,19,0.00
2013-10-15,53.5,49.5,45.9,51.3,47.1,44.0,94,92,89,29.85,29.57,23,9,23,0.00
2013-10-16,62.8,48.4,41.4,44.0,40.1,35.0,93,75,42,29.86,29.73,17,5,17,0.00
2013-10-17,67.0,47.4,39.2,45.5,39.2,33.7,90,75,39,29.78,29.66,15,5,15,0.00
2013-10-18,61.4,48.1,38.5,41.0,35.2,29.5,89,64,33,29.87,29.74,16,6,16,0.00
2013-10-19,52.4,39.8,32.9,41.9,34.7,28.9,89,82,62,29.74,29.58,22,6,22,0.00
2013-10-20,47.2,38.0,31.5,40.8,33.3,28.3,90,84,66,29.76,29.50,17,6,17,0.00
2013-10-21,42.3,35.6,29.7,32.9,23.9,20.6,80,63,49,29.85,29.76,25,8,25,0.00
2013-10-22,44.3,36.0,25.7,36.1,29.0,21.8,90,76,64,29.91,29.83,10,3,10,0.00
2013-10-23,40.3,35.0,31.3,31.0,26.0,20.6,86,70,52,29.98,29.87,17,5,17,0.00
2013-10-24,51.3,39.3,32.9,31.4,27.5,21.5,81,63,44,30.19,29.98,18,6,18,0.00
2013-10-25,59.4,44.3,26.1,41.9,33.6,23.0,91,68,49,30.19,29.68,30,11,30,0.00
2013-10-26,56.5,45.9,37.1,41.4,31.3,28.6,73,58,41,29.99,29.69,22,9,22,0.00
2013-10-27,68.8,47.4,29.5,39.1,31.5,25.0,85,58,33,30.02,29.70,20,7,20,0.00
2013-10-28,54.7,40.8,32.2,30.2,25.4,20.6,79,57,32,30.30,30.02,19,8,19,0.00
2013-10-29,42.3,37.9,31.9,35.8,28.8,21.8,87,70,62,30.28,29.96,13,6,13,0.00
2013-10-30,49.0,44.6,39.2,47.4,42.6,35.8,94,93,87,29.96,29.56,13,3,13,0.00
2013-10-31,49.0,42.6,40.0,47.4,40.1,36.5,95,91,83,29.56,29.30,17,7,17,0.00
2013-11-1,58.5,45.1,37.4,39.1,36.7,31.4,92,74,47,29.75,29.31,18,7,18,0.00
2013-11-2,60.7,42.3,34.2,36.2,31.9,29.2,85,69,36,29.97,29.74,15,5,15,0.00
2013-11-3,56.7,45.6,36.2,35.8,33.0,29.2,80,63,42,29.99,29.76,40,16,40,0.00
2013-11-4,49.7,45.0,35.6,43.8,37.5,32.3,91,76,60,30.03,29.71,25,11,25,0.00
2013-11-5,47.2,36.5,28.3,39.0,30.9,26.0,93,81,57,30.12,29.89,17,5,17,0.00
2013-11-6,45.7,35.8,28.6,31.2,27.6,24.0,93,74,46,30.04,29.89,15,6,16,0.00
2013-11-7,36.5,30.0,25.7,30.0,26.4,23.2,93,86,74,30.12,30.03,17,6,17,0.00
2013-11-8,45.7,36.4,24.5,39.5,28.6,22.2,92,75,53,30.07,29.49,30,11,30,0.00
2013-11-9,44.3,41.0,35.1,40.1,32.6,25.6,85,72,56,30.08,29.52,30,14,30,0.00
2013-11-10,45.5,38.2,32.9,31.6,29.2,25.4,77,70,55,30.20,29.96,16,7,16,0.00
2013-11-11,38.2,27.3,16.2,31.6,15.2,7.7,82,61,38,30.59,29.97,21,9,21,0.00
2013-11-12,32.4,21.3,12.6,14.4,9.9,6.4,80,63,40,30.64,30.30,15,7,15,0.00
2013-11-13,54.0,38.1,22.1,35.3,24.8,13.3,71,59,45,30.30,29.75,30,14,30,0.00
2013-11-14,55.4,41.0,34.2,40.1,33.0,27.6,84,74,54,29.75,29.62,13,6,13,0.00
2013-11-15,60.7,44.6,31.0,40.8,35.0,28.2,91,71,45,29.73,29.51,21,8,21,0.00
2013-11-16,48.4,44.9,41.2,47.1,41.5,34.8,95,88,69,29.52,29.12,21,9,21,0.00
2013-11-17,44.8,39.6,32.0,40.4,34.6,24.5,95,82,71,29.70,29.19,30,11,30,0.00
2013-11-18,43.7,32.5,24.7,25.0,21.5,18.1,81,64,44,30.12,29.71,26,9,26,0.00
2013-11-19,48.6,36.6,23.0,31.0,25.5,17.3,83,65,46,30.12,29.79,33,13,33,0.00
2013-11-20,44.8,41.6,37.4,33.8,30.4,25.7,85,66,49,29.90,29.75,28,14,28,0.00
2013-11-21,38.0,31.1,24.1,35.5,26.5,15.4,92,83,69,30.37,29.90,20,8,20,0.00
2013-11-22,34.9,23.4,15.3,16.2,12.7,7.7,80,65,33,30.44,30.32,19,7,19,0.00
2013-11-25,41.6,35.0,28.8,29.0,24.6,20.9,80,66,57,29.95,29.80,21,10,21,0.00
2013-11-30,49.0,34.7,25.9,29.6,25.0,21.2,84,68,45,30.02,29.82,9,4,9,0.00
2013-12-1,36.5,27.2,20.0,26.8,21.3,16.1,87,79,65,30.04,29.72,6,3,6,0.00
2013-12-2,37.8,33.0,27.7,32.6,29.1,23.2,93,86,76,29.77,29.39,20,7,20,0.00
2013-12-3,35.3,34.1,31.7,33.5,32.1,29.7,94,92,90,29.62,29.40,13,5,13,0.00
2013-12-4,31.7,28.1,15.8,29.9,25.6,11.3,93,90,81,29.61,29.27,29,9,29,0.00